Weather in Gereykhanovskoye

Russia / Republic of Dagestan     41°42′04″N   48°16′52″E
temp.,
°C
wind,
m/s
gust,
m/s
humid.,
%
clouds,
%
prec.,
mm/h
press.,
hPa
HPBL,
m
18 may, wed
wed1800:00+11sw2280100 0.0 101614
03:00+11w227311 0.0 101614
06:00+14nnw25655 0.0 1017307
09:00+17ne335965 0.0 10181245
12:00+19ene335594 0.1 10161492
15:00+17e446187 0.1 1014757
18:00+17e34657 0.0 1013313
21:00+11w11820 0.0 101412
19 may, thu
thu1900:00+11w22780 0.0 101312
03:00+11wsw11710 0.0 101111
06:00+16sw11540 0.0 101146
09:00+20ne21480 0.0 1012540
12:00+24ne33400 0.0 10111051
15:00+23ne43470 0.0 1011763
18:00+19ne34645 0.0 1012163
21:00+14sw2280100 0.0 101312
20 may, fri
fri2000:00+13n0186100 0.0 101414
03:00+13sse1182100 0.0 101326
06:00+10n5779100 0.1 1017557
09:00+10ssw2274100 0.3 1019535
12:00+13sse2260100 0.0 10191108
15:00+13s1166100 0.4 1017206
18:00+11wsw3487100 3.9 1020258
21:00+9sw5783100 5.4 1021130
21 may, sat
sat2100:00+8wsw22740 0.0 102016
03:00+7wsw32710 0.0 102021
06:00+10sw23650 0.0 102195
09:00+16se44510 0.0 10201102
12:00+19ese764468 0.0 10171916
15:00+18ese775158 0.0 10161197
18:00+15ese446767 0.0 1015347
21:00+10w22840 0.0 101417
22 may, sun
sun2200:00+10wsw226672 0.0 101315
03:00+13wsw334714 0.0 101331
06:00+14ssw22550 0.0 101469
09:00+20se44430 0.0 10111038
12:00+24se66360 0.0 10091495
15:00+24ese66370 0.0 10071318
18:00+20e34540 0.0 1006103
21:00+14w22710 0.0 100517